Flag for Brazil Weather past 2 weeks in Curitiba, Paraná, Brazil

Now
54 °F

Partly sunny.


Feels Like: 52 °F
Forecast: 54 / 70 °F
Wind: 7 mph from Northeast

Location: Curitiba Aeroporto

Current Time: Sep 3, 2015 at 8:00:36 AM

Latest Report: Sep 3, 2015 at 7:00 AM


Visibility: N/A

Pressure: 30.09 "Hg (26.97 "Hg at 915m altitude)

Humidity: 100%

Dew point: 54 °F

Location of CuritibaLocation

Historic Weather in Curitiba — Graph

°F

Curitiba temperature yesterday

Maximum temperature yesterday: 57 °F (at 11:00 AM)
Minimum temperature yesterday: 52 °F (at 12:00 AM)
Average temperature yesterday: 54 °F

Past Weeks' High & Low Weather Summary

 TemperatureHumidityPressure
High86 °F (Aug 30, 3:00 PM)100% (Aug 22, 5:00 AM)30.30 "Hg (Aug 22, 5:00 AM)
Low45 °F (Aug 28, 6:00 AM)12% (Aug 30, 3:00 PM)30.01 "Hg (Aug 19, 7:00 AM)
Average59 °F77%30.16 "Hg
* Reported Aug 19 7:00 AM — Sep 3 7:00 AM, Curitiba, Weather by CustomWeather, © 2015

Note: Actual official high and low records may vary slightly from our data, if they occured in-between our weather recording intervals... More about our weather records

Advertising

Curitiba weather history for previous 24 hours

 ConditionsComfort  
Time TempWeatherWind HumidityBarometerVisibility
7:00 AM
Thu, Sep 3
54 °FPartly sunny.7 mph100%30.09 "HgN/A
6:00 AM54 °FPassing clouds.6 mph94%30.09 "HgN/A
5:00 AM54 °FLow clouds.10 mph94%30.12 "HgN/A
4:00 AM54 °FPassing clouds.5 mph94%30.09 "HgN/A
3:00 AM54 °FPassing clouds.2 mph94%30.09 "HgN/A
2:00 AM54 °FPassing clouds.2 mph94%30.12 "HgN/A
1:00 AM54 °FLight rain. Passing clouds.6 mph94%30.15 "Hg3 mi
12:00 AM55 °FPassing clouds.2 mph88%30.21 "HgN/A
11:00 PM
Wed, Sep 2
54 °FPassing clouds.6 mph94%30.18 "HgN/A
10:00 PM55 °FPassing clouds.6 mph88%30.18 "HgN/A
9:00 PM55 °FPassing clouds.7 mph88%30.18 "HgN/A
8:00 PM55 °FPassing clouds.7 mph88%30.18 "HgN/A
7:00 PM55 °FPassing clouds.6 mph88%30.18 "HgN/A
6:00 PM55 °FPassing clouds.10 mph88%30.18 "HgN/A
5:00 PM57 °FPartly sunny.10 mph82%30.18 "HgN/A
4:00 PM57 °FOvercast.8 mph82%30.18 "HgN/A
3:00 PM57 °FOvercast.10 mph77%30.18 "HgN/A
2:00 PM57 °FOvercast.10 mph77%30.21 "HgN/A
1:00 PM57 °FMostly cloudy.12 mph77%30.24 "HgN/A
12:00 PM55 °FOvercast.10 mph82%30.27 "HgN/A
11:00 AM57 °FOvercast.13 mph77%30.27 "HgN/A
10:00 AM55 °FMostly cloudy.8 mph82%30.30 "HgN/A
9:00 AM54 °FMore clouds than sun.8 mph88%30.30 "HgN/A
8:00 AM54 °FCloudy.6 mph88%N/AN/A
Weather by CustomWeather, © 2015

See weather overviewHow to use our weather pages